STARLINK-2633, 48435

Orbit data source: Space-Track

STARLINK-2633, 48435 is a payload satellite owned by SpaceX/Seattle (US) in LEO that was launched on Sun, 09 May 2021 UTC via an FALCON 9 launch vehicle from the Air Force Eastern Test Range (AFETR). Payload-class satellites include a variety of spacecraft equipped with specific instruments for various scientific and technological missions. These include communications satellites like Starlink; space stations such as the ISS; scientific satellites like the Hubble; Earth observation satellites from companies like Planet Labs, Umbra, and HawkEye 360; GPS; miniature CubeSats for education and research; and military/defense satellites.

Loading next visibility...
Identifier
48435, 2021-040H
Orbit
LEO
Country
Flag of USUS
Related business
Manufacturer
SpaceX/Seattle
Mission
Operational Commercial Communications
Bus & Motor
STARLINK, Unknown motor
Mass
260 kg wet, ~248 kg dry
Launch date (UTC)
2021-05-09 (5 years ago)
Launch vehicle
FALCON 9
Launch site
Air Force Eastern Test Range (AFETR)
Object type
Payload
Rocket body
Debris
Shape & HBR
Box + 1 Pan, 10.1 m
Radar Cross Section
13.562 m², Large (>1 m²)

Expand to show TLE details & history
Last TLE update: 2 days ago

TLE from 2 days ago
0 STARLINK-2633
1 48435U 21040H   26171.30293157  .00005121  00000-0  17671-3 0  9992
2 48435  53.1593  47.8930 0001222  93.3245 266.7896 15.31692624282573
Epoch: 2026-06-20T07:16Z
TLE epoch observation values (Epoch: 2026-06-20T07:16:13.287Z)
Latitude
-0.00005°
Longitude
30.31811°
Altitude
471.709 km
Speed
7.631 km/s
True Right ascension
03h 11m 34s
True Declination
0° 00' 00"
Sunlit
Object was in daylight at epoch
Visualization orbit readout
Latitude
Unknown
Longitude
Unknown
Altitude
Unknown
Speed
Unknown
Apparent Right ascension
Unknown
Apparent Declination
Unknown
Sunlit
N/A
Visualization observer readout
Local Sidereal Time
21:23:16
Azimuth
Unknown
Elevation
Unknown
Doppler factor
Unknown
Orbital elements
Apogee altitude
471.856 km
Perigee altitude
470.182 km
Semi-major axis
6,849.156 km
Eccentricity
0.00012
Inclination
53.1593°
RAAN
47.893°
Arg. of periapsis
93.3245°
True anomaly
266.77562°
Mean anomaly
266.7896°
Eccentric anomaly
266.78261°
Mean motion
3.82902 °/min
Orbital period
94.02 mins
BSTAR
0.00017671
Loading maneuver chart data...
Computing Atmospheric mass density...
Loading historical data...
Loading historical data...
Loading historical data...
Loading historical data...
Loading historical data...
Loading historical data...
Loading historical data...

Documentation

Showing up to 5 results
|